KF6RAL-6 Weather Reports


Display with metric or nautical units.
time (UTC)temp
F
wind
direction
speed
MPH
gust
MPH
rain 1hr
in
rain 24hr
in
rain mn
in
humidity
%
barometer
mb
20260505211427 60 93 11.0 18.0 0.00 0.00 0.00 50 1008.2
20260505210726 60 82 11.0 18.0 0.00 0.00 0.00 50 1008.1
20260505210026 60 80 10.0 16.0 0.00 0.00 0.00 50 1008.1
20260505205324 60 85 10.0 18.0 0.00 0.00 0.00 50 1008.1
20260505204623 61 84 12.0 19.0 0.00 0.00 0.00 48 1008.0
20260505203923 61 85 12.0 19.0 0.00 0.00 0.00 46 1007.2
20260505203221 62 78 12.0 19.0 0.00 0.00 0.00 47 1007.8
20260505202520 63 85 8.0 15.0 0.00 0.00 0.00 46 1007.7
20260505201819 64 89 9.0 16.0 0.00 0.00 0.00 46 1007.3
20260505201118 63 89 5.0 13.0 0.00 0.00 0.00 46 1007.6
20260505200417 62 96 7.0 12.0 0.00 0.00 0.00 48 1007.7
20260505195716 61 87 5.0 10.0 0.00 0.00 0.00 46 1007.3
20260505195015 62 90 6.0 11.0 0.00 0.00 0.00 46 1007.9
20260505194314 62 74 6.0 12.0 0.00 0.00 0.00 45 1008.0
20260505193613 62 97 5.0 12.0 0.00 0.00 0.00 45 1008.0
20260505192913 62 89 7.0 14.0 0.00 0.00 0.00 47 1007.9
20260505192213 61 75 7.0 13.0 0.00 0.00 0.00 45 1008.0
20260505191510 61 68 6.0 12.0 0.00 0.00 0.00 47 1008.0
20260505190811 61 53 6.0 12.0 0.00 0.00 0.00 45 1008.1
20260505190108 61 71 6.0 11.0 0.00 0.00 0.00 47 1008.1
20260505185407 61 58 5.0 9.0 0.00 0.00 0.00 45 1008.2
20260505184706 60 79 5.0 12.0 0.00 0.00 0.00 49 1007.9
20260505183304 60 45 9.0 12.0 0.00 0.00 0.00 48 1008.2
20260505181902 60 3 3.0 10.0 0.00 0.00 0.00 49 1008.1
20260505181201 60 17 6.0 10.0 0.00 0.00 0.00 49 1008.0
20260505180502 59 52 4.0 7.0 0.00 0.00 0.00 51 1007.9
20260505175759 58 22 4.0 11.0 0.00 0.00 0.00 52 1007.5
20260505175058 58 20 7.0 10.0 0.00 0.00 0.00 53 1008.2
20260505174357 59 27 7.0 10.0 0.00 0.00 0.00 52 1008.0
20260505173657 59 13 4.0 10.0 0.00 0.00 0.00 51 1008.0
20260505172955 59 356 4.0 9.0 0.00 0.00 0.00 51 1008.0
20260505172254 59 360 5.0 9.0 0.00 0.00 0.00 51 1007.8
20260505171553 59 13 3.0 7.0 0.00 0.00 0.00 50 1007.8
20260505170852 60 345 3.0 7.0 0.00 0.00 0.00 49 1007.8
20260505170151 59 19 3.0 6.0 0.00 0.00 0.00 51 1007.7
20260505165450 59 351 2.0 7.0 0.00 0.00 0.00 52 1007.5
20260505164048 59 7 4.0 7.0 0.00 0.00 0.00 52 1007.2
20260505163347 58 360 3.0 6.0 0.00 0.00 0.00 52 1007.4
20260505162646 58 10 4.0 9.0 0.00 0.00 0.00 52 1007.5
20260505161945 58 4 4.0 9.0 0.00 0.00 0.00 53 1007.5
20260505161244 58 36 5.0 8.0 0.00 0.00 0.00 54 1007.5
20260505160543 58 29 5.0 12.0 0.00 0.00 0.00 54 1007.4
20260505153038 58 13 5.0 7.0 0.00 0.00 0.00 47 1007.3
20260505152337 58 57 5.0 11.0 0.00 0.00 0.00 51 1007.3
20260505151637 58 53 6.0 11.0 0.00 0.00 0.00 52 1007.2
20260505150936 58 54 6.0 9.0 0.00 0.00 0.00 50 1007.3
20260505150234 59 42 3.0 5.0 0.00 0.00 0.00 48 1006.9
20260505140625 59 0 0.0 7.0 0.00 0.00 0.00 59 1006.6
20260505124914 57 117 1.0 7.0 0.00 0.00 0.00 61 1006.1
20260505124213 57 129 2.0 6.0 0.00 0.00 0.00 63 1005.9
20260505123512 57 104 3.0 9.0 0.00 0.00 0.00 63 1005.8
20260505122811 58 92 4.0 9.0 0.00 0.00 0.00 63 1005.5
20260505122110 58 76 4.0 9.0 0.00 0.00 0.00 61 1005.4
20260505121409 59 137 1.0 12.0 0.00 0.00 0.00 50 1005.6
20260505120708 59 152 1.0 6.0 0.00 0.00 0.00 53 1005.5
20260505120007 58 68 2.0 5.0 0.00 0.00 0.00 59 1005.3
20260505115306 58 0 0.0 5.0 0.00 0.00 0.00 58 1005.5
20260505114605 58 56 1.0 6.0 0.00 0.00 0.00 59 1005.9
20260505113904 58 49 3.0 5.0 0.00 0.00 0.00 60 1005.9
20260505113203 57 118 2.0 5.0 0.00 0.00 0.00 61 1006.0
20260505112502 57 0 0.0 4.0 0.00 0.00 0.00 62 1006.0
20260505111803 58 0 0.0 5.0 0.00 0.00 0.00 61 1006.0
20260505111100 58 53 3.0 5.0 0.00 0.00 0.00 60 1006.0
20260505110359 58 289 1.0 5.0 0.00 0.00 0.00 59 1006.0
20260505102153 57 252 4.0 6.0 0.00 0.00 0.00 64 1005.5
20260505101452 58 205 3.0 6.0 0.00 0.00 0.00 63 1005.6
20260505100751 58 84 1.0 6.0 0.00 0.00 0.00 61 1005.6
20260505100050 58 73 4.0 8.0 0.00 0.00 0.00 62 1005.7
20260505095349 58 62 4.0 12.0 0.00 0.00 0.00 62 1005.7
20260505094648 59 86 4.0 9.0 0.00 0.00 0.00 62 1005.8
20260505093947 59 265 2.0 8.0 0.00 0.00 0.00 58 1005.7
20260505093246 59 254 4.0 14.0 0.00 0.00 0.00 60 1005.6
20260505092622 59 239 10.0 18.0 0.00 0.00 0.00 61 1005.7
20260505092545 59 239 10.0 18.0 0.00 0.00 0.00 61 1005.7
20260505091844 59 235 5.0 10.0 0.00 0.00 0.00 59 1005.8
20260505091143 59 0 0.0 9.0 0.00 0.00 0.00 60 1005.6
20260505090442 59 111 5.0 9.0 0.00 0.00 0.00 59 1005.7
20260505085741 58 96 2.0 8.0 0.00 0.00 0.00 63 1005.7
20260505085040 58 125 4.0 12.0 0.00 0.00 0.00 64 1005.8
20260505084339 59 133 5.0 12.0 0.00 0.00 0.00 61 1005.9
20260505083638 60 130 3.0 7.0 0.00 0.00 0.00 59 1005.8
20260505082937 60 131 1.0 6.0 0.00 0.00 0.00 56 1006.0
20260505082236 60 130 1.0 9.0 0.00 0.00 0.00 56 1006.1
20260505081535 59 0 0.0 5.0 0.00 0.00 0.00 58 1006.2
20260505080834 60 52 2.0 6.0 0.00 0.00 0.00 61 1006.1
20260505080133 59 44 1.0 9.0 0.00 0.00 0.00 60 1006.1
20260505075432 59 81 1.0 10.0 0.00 0.00 0.00 60 1006.0
20260505074731 59 66 3.0 9.0 0.00 0.00 0.00 59 1006.0
20260505074030 59 122 2.0 6.0 0.00 0.00 0.00 59 1006.0
20260505073329 59 117 2.0 8.0 0.00 0.00 0.00 58 1006.1
20260505072628 59 127 4.0 7.0 0.00 0.00 0.00 60 1006.1
20260505071927 60 0 0.0 6.0 0.00 0.00 0.00 59 1006.6
20260505071226 60 67 1.0 6.0 0.00 0.00 0.00 58 1006.7
20260505070525 60 101 1.0 6.0 0.00 0.00 0.00 58 1006.5
20260505065825 60 88 2.0 9.0 0.00 0.00 0.00 57 1006.5
20260505065123 61 131 4.0 9.0 0.00 0.00 0.00 54 1006.4
20260505064422 61 116 3.0 7.0 0.00 0.00 0.00 54 1006.0
20260505063721 61 33 1.0 5.0 0.00 0.00 0.00 53 1006.0
20260505063020 61 0 0.0 6.0 0.00 0.00 0.00 54 1005.9
20260505062319 61 117 2.0 10.0 0.00 0.00 0.00 52 1005.8
20260505061618 61 131 5.0 10.0 0.00 0.00 0.00 51 1005.8
20260505060917 62 0 0.0 6.0 0.00 0.00 0.00 49 1005.8
20260505060216 61 9 2.0 6.0 0.00 0.00 0.00 52 1005.7
20260505055515 61 85 3.0 7.0 0.00 0.00 0.00 53 1005.7
20260505054814 61 114 2.0 7.0 0.00 0.00 0.00 51 1005.7
20260505054113 61 116 3.0 12.0 0.00 0.00 0.00 51 1005.1
20260505053412 61 0 0.0 6.0 0.00 0.00 0.00 51 1004.9
20260505052711 61 127 3.0 6.0 0.00 0.00 0.00 51 1004.8
20260505052010 61 0 0.0 6.0 0.00 0.00 0.00 51 1004.8
20260505051309 62 177 3.0 5.0 0.00 0.00 0.00 52 1005.3
20260505050608 63 0 0.0 4.0 0.00 0.00 0.00 47 1005.3
20260505041000 64 79 1.0 4.0 0.00 0.00 0.00 49 1004.6
20260505040259 64 82 1.0 6.0 0.00 0.00 0.00 42 1004.6
20260505035558 64 92 2.0 10.0 0.00 0.00 0.00 42 1004.5
20260505034857 63 229 4.0 15.0 0.00 0.00 0.00 42 1004.7
20260505034156 64 226 11.0 16.0 0.00 0.00 0.00 46 1004.6
20260505033456 65 284 2.0 7.0 0.00 0.00 0.00 42 1004.3
20260505032754 65 127 1.0 7.0 0.00 0.00 0.00 37 1004.3
20260505032054 65 127 3.0 11.0 0.00 0.00 0.00 38 1004.2
20260505031352 66 198 6.0 14.0 0.00 0.00 0.00 38 1003.9
20260505030650 67 0 0.0 6.0 0.00 0.00 0.00 39 1003.8
20260505025949 67 193 3.0 6.0 0.00 0.00 0.00 38 1003.8
20260505025248 69 0 0.0 4.0 0.00 0.00 0.00 37 1004.3
20260505024547 69 0 0.0 2.0 0.00 0.00 0.00 34 1004.1
20260505023846 69 0 0.0 4.0 0.00 0.00 0.00 32 1003.9
20260505023145 70 0 0.0 13.0 0.00 0.00 0.00 30 1003.8
20260505022444 70 134 4.0 13.0 0.00 0.00 0.00 30 1003.8
20260505021744 70 123 7.0 16.0 0.00 0.00 0.00 30 1003.7
20260505021042 70 125 5.0 12.0 0.00 0.00 0.00 31 1003.6
20260505020341 70 141 5.0 15.0 0.00 0.00 0.00 30 1003.6
20260505015640 71 128 5.0 15.0 0.00 0.00 0.00 31 1003.2
20260505014939 70 140 6.0 15.0 0.00 0.00 0.00 32 1003.6
20260505014238 70 121 5.0 12.0 0.00 0.00 0.00 32 1003.3
20260505013538 69 137 5.0 12.0 0.00 0.00 0.00 36 1003.4
20260505012837 70 124 7.0 14.0 0.00 0.00 0.00 36 1003.5
20260505012135 70 128 6.0 17.0 0.00 0.00 0.00 36 1003.5
20260505011434 70 129 10.0 17.0 0.00 0.00 0.00 35 1003.6
20260505010733 70 133 9.0 17.0 0.00 0.00 0.00 34 1003.8
20260505010032 70 131 13.0 18.0 0.00 0.00 0.00 34 1003.8
20260505005333 70 133 11.0 18.0 0.00 0.00 0.00 34 1004.0
20260505004630 70 134 12.0 18.0 0.00 0.00 0.00 35 1004.3
20260505003929 70 128 11.0 20.0 0.00 0.00 0.00 35 1004.4
20260505003228 71 130 12.0 20.0 0.00 0.00 0.00 34 1004.0
20260505002529 70 97 11.0 21.0 0.00 0.00 0.00 35 1004.0
20260505001826 71 104 11.0 21.0 0.00 0.00 0.00 36 1004.0
20260505001126 71 100 15.0 23.0 0.00 0.00 0.00 36 1003.9
20260505000429 72 95 11.0 20.0 0.00 0.00 0.00 34 1004.0
20260504235723 73 113 8.0 14.0 0.00 0.00 0.00 31 1003.9
20260504235022 73 104 7.0 11.0 0.00 0.00 0.00 32 1004.7
20260504234321 72 101 1.0 10.0 0.00 0.00 0.00 31 1004.0
20260504232920 71 162 3.0 20.0 0.00 0.00 0.00 29 1004.4
20260504232218 71 195 10.0 24.0 0.00 0.00 0.00 29 1004.2
20260504231517 70 199 11.0 24.0 0.00 0.00 0.00 30 1004.2
20260504230816 71 206 10.0 20.0 0.00 0.00 0.00 32 1004.2
20260504230115 71 195 11.0 19.0 0.00 0.00 0.00 29 1004.2
20260504225414 70 198 13.0 19.0 0.00 0.00 0.00 30 1004.5
20260504224713 71 229 5.0 10.0 0.00 0.00 0.00 29 1004.4
20260504224012 70 217 6.0 15.0 0.00 0.00 0.00 29 1004.8
20260504223311 71 209 4.0 10.0 0.00 0.00 0.00 29 1004.5
20260504222612 71 193 5.0 12.0 0.00 0.00 0.00 29 1004.5
20260504221909 71 181 4.0 18.0 0.00 0.00 0.00 29 1004.6
20260504221208 71 185 9.0 19.0 0.00 0.00 0.00 29 1004.6
20260504215105 70 164 7.0 24.0 0.00 0.00 0.00 31 1005.2
20260504214404 69 191 15.0 24.0 0.00 0.00 0.00 32 1005.1
20260504213703 69 199 13.0 25.0 0.00 0.00 0.00 33 1005.2
20260504213002 69 191 10.0 26.0 0.00 0.00 0.00 32 1005.3
20260504212301 69 193 16.0 38.0 0.00 0.00 0.00 34 1005.4